Weather reports worldwide

Advertisment
Straubing, Germany (10788): temperature & dewpoint: 07.07.2020 06:00:00 - 13.07.2020 06:00:00 (CEST)Straubing, Germany (10788): temperature 5cm & temperature -5cm: 07.07.2020 06:00:00 - 13.07.2020 06:00:00 (CEST)Straubing, Germany (10788): temperature -20cm & temperature -100cm: 07.07.2020 06:00:00 - 13.07.2020 06:00:00 (CEST)Straubing, Germany (10788): wind speed & gusts: 07.07.2020 06:00:00 - 13.07.2020 06:00:00 (CEST)Straubing, Germany (10788): wind direction: 07.07.2020 06:00:00 - 13.07.2020 06:00:00 (CEST)Straubing, Germany (10788): reduced air pressure: 07.07.2020 06:00:00 - 13.07.2020 06:00:00 (CEST)Straubing, Germany (10788): visibility: 07.07.2020 06:00:00 - 13.07.2020 06:00:00 (CEST)Straubing, Germany (10788): sunshine duration: 07.07.2020 06:00:00 - 13.07.2020 06:00:00 (CEST)Straubing, Germany (10788): precipitation: 07.07.2020 06:00:00 - 13.07.2020 06:00:00 (CEST)
Date & Time tt [°C] td [°C] tt 5cm [°C] tt -5cm [°C] tt -20cm [°C] tt -100cm [°C] ff [km/h] ff [kn] fx [km/h] fx [kn] dd ppp [hPa] vv [km] sd [min] rr [mm]
13.07.2020 06:00:00 8,8 7,2 7,2 12,9 19,3 17,6 4 2 6 3 WSW 1025,2 38 0 0,0
13.07.2020 05:00:00 8,1 7,2 6,5 13,4 19,8 17,6 3 1 5 3 SW 1025,3 40 0 0,0
13.07.2020 04:00:00 8,8 7,8 6,9 14,0 20,2 17,6 3 2 6 3 SW 1025,5 39 0 0,0
13.07.2020 03:00:00 9,2 8,2 8,1 14,8 20,7 17,6 4 2 10 5 SSW 1025,6 35 0 0,0
13.07.2020 02:00:00 10,0 8,9 8,7 15,5 21,2 17,6 5 3 8 5 SSW 1025,6 41 0 0,0
13.07.2020 01:00:00 10,3 8,9 8,9 16,5 21,7 17,6 4 2 11 6 SSW 1025,7 38 0 0,0
13.07.2020 00:00:00 11,9 10,2 10,3 17,6 22,2 17,7 6 3 10 6 SSW 1025,6 44 0 0,0
12.07.2020 23:00:00 14,2 10,3 10,1 19,1 22,6 17,7 2 1 6 3 S 1025,5 75 0 0,0
12.07.2020 22:00:00 16,3 11,9 12,2 21,0 22,9 17,7 3 2 6 4 ESE 1024,9 66 0 0,0
12.07.2020 21:00:00 18,7 10,7 16,9 23,8 23,0 17,7 6 3 13 7 ESE 1024,4 68 52 0,0
12.07.2020 20:00:00 20,1 8,8 21,7 26,3 22,9 17,7 9 5 16 8 ESE 1024,3 75 60 0,0
12.07.2020 19:00:00 21,3 6,7 23,7 28,2 22,6 17,7 5 3 14 7 W 1024,1 60 60 0,0
12.07.2020 18:00:00 21,6 6,4 26,3 29,9 22,2 17,7 4 2 14 8 ESE 1024,2 75 59 0,0
12.07.2020 17:00:00 21,4 7,5 27,0 28,4 21,7 17,7 5 3 16 9 NNE 1024,5 75 39 0,0
12.07.2020 16:00:00 21,3 6,3 27,0 29,9 21,1 17,7 7 4 19 11 NNE 1024,7 63 54 0,0
12.07.2020 15:00:00 20,2 7,8 23,2 28,4 20,6 17,7 4 2 19 10 S 1025,2 71 52 0,0
12.07.2020 14:00:00 19,9 8,0 27,2 24,9 20,2 17,7 9 5 17 9 NNE 1025,3 61 17 0,0
12.07.2020 13:00:00 19,1 9,2 22,9 24,0 19,9 17,7 5 3 14 8 NE 1025,6 69 4 0,0
12.07.2020 12:00:00 18,8 7,9 23,6 25,7 19,3 17,7 7 4 16 9 E 1025,6 75 41 0,0
12.07.2020 11:00:00 18,8 9,5 23,8 24,8 18,8 17,7 8 4 14 8 E 1025,5 75 60 0,0
12.07.2020 10:00:00 17,1 11,5 20,0 21,7 18,5 17,7 8 4 12 6 ENE 1026,0 63 58 0,0
12.07.2020 09:00:00 15,5 12,0 18,0 18,8 18,3 17,6 6 3 11 6 SE 1026,1 58 33 0,0
12.07.2020 08:00:00 13,8 12,1 15,9 17,1 18,3 17,6 8 4 10 5 E 1026,2 22 36 0,0
12.07.2020 07:00:00 13,1 11,8 14,2 15,7 18,5 17,6 5 3 8 4 NE 1025,9 18 34 0,0
12.07.2020 06:00:00 11,6 11,2 11,7 14,5 18,7 17,6 3 1 5 3 ENE 1025,5 6 0 0,0
12.07.2020 05:00:00 11,3 11,0 11,4 14,3 19,0 17,6 3 2 5 3 ENE 1025,5 0,8 0 0,0
12.07.2020 04:00:00 10,9 10,6 10,4 14,2 19,3 17,6 5 3 6 4 SE 1025,2 0,2 0 0,0
12.07.2020 03:00:00 10,6 10,5 9,7 14,5 19,6 17,6 4 2 10 6 E 1025,5 - 0 0,0
12.07.2020 02:00:00 11,5 11,4 11,0 14,4 20,0 17,6 8 4 11 6 ENE 1025,4 0,1 0 0,0
12.07.2020 01:00:00 11,5 10,9 9,8 15,0 20,4 17,6 4 2 8 4 E 1025,6 23 0 0,0
12.07.2020 00:00:00 11,8 10,4 10,0 15,8 20,8 17,6 7 4 11 6 NE 1025,3 45 0 0,0
11.07.2020 23:00:00 13,6 11,5 11,7 17,0 21,1 17,6 9 5 14 8 SE 1024,7 75 0 0,0
11.07.2020 22:00:00 14,3 12,5 11,7 17,7 21,4 17,6 5 3 8 4 ESE 1024,0 63 0 0,0
11.07.2020 21:00:00 16,1 11,7 14,3 19,1 21,6 17,6 8 4 26 14 NE 1023,1 65 30 0,0
11.07.2020 20:00:00 19,1 9,5 18,9 21,2 21,7 17,6 4 2 11 6 ENE 1022,2 64 30 0,0
11.07.2020 19:00:00 19,3 9,8 21,8 21,6 21,8 17,6 8 4 20 11 NNE 1021,7 63 22 0,0
11.07.2020 18:00:00 19,3 10,5 20,6 22,2 21,7 17,6 12 6 20 11 N 1021,6 75 8 0,0
11.07.2020 17:00:00 19,6 10,9 24,8 24,6 21,6 17,5 13 7 28 15 NE 1021,4 72 49 0,0
11.07.2020 16:00:00 19,2 10,6 24,9 24,0 21,3 17,5 18 10 29 15 NNE 1021,5 75 46 0,0
11.07.2020 15:00:00 18,5 11,4 21,0 23,7 21,1 17,5 16 9 31 17 N 1021,6 53 29 0,0
11.07.2020 14:00:00 17,6 11,9 21,2 22,9 20,9 17,5 18 10 29 15 N 1021,4 44 13 0,0
11.07.2020 13:00:00 16,8 12,8 21,2 21,8 20,8 17,5 14 8 20 11 N 1021,2 58 3 0,0
11.07.2020 12:00:00 15,8 13,1 18,0 19,8 20,9 17,5 11 6 23 12 N 1021,1 61 0 0,1
11.07.2020 11:00:00 14,4 13,5 15,2 18,3 21,1 17,5 11 6 18 10 N 1020,7 16 0 1,2
11.07.2020 10:00:00 14,8 13,9 14,8 18,1 21,3 17,5 6 4 17 9 WNW 1020,2 11 0 2,0
11.07.2020 09:00:00 14,9 14,0 15,0 18,3 21,6 17,5 8 5 15 8 NW 1019,4 16 0 1,9
11.07.2020 08:00:00 15,2 13,7 14,8 18,6 21,8 17,5 6 4 12 7 W 1019,0 20 0 0,5
11.07.2020 07:00:00 15,3 13,8 14,8 18,4 22,1 17,5 8 4 13 7 NNW 1018,1 21 0 1,4
11.07.2020 06:00:00 15,8 14,0 14,8 18,9 22,4 17,4 5 3 10 5 WNW 1017,7 24 0 0,9
11.07.2020 05:00:00 16,6 14,3 15,3 19,4 22,7 17,4 7 4 13 7 WNW 1017,2 17 0 0,1
11.07.2020 04:00:00 16,8 14,7 16,4 19,8 23,1 17,4 5 3 11 6 WNW 1017,0 40 0 0,0
11.07.2020 03:00:00 17,2 14,4 16,7 20,0 23,4 17,4 8 5 15 8 WSW 1016,8 61 0 0,0
11.07.2020 02:00:00 17,6 15,1 17,0 20,5 23,8 17,4 11 6 17 9 SW 1017,0 48 0 0,0
11.07.2020 01:00:00 18,4 16,2 17,8 21,1 24,2 17,4 9 5 19 10 SW 1016,6 59 0 0,0
11.07.2020 00:00:00 18,0 15,4 16,6 21,9 24,6 17,4 11 6 14 7 SSW 1016,0 54 0 0,2
10.07.2020 23:00:00 20,4 14,3 17,5 22,9 25,0 17,4 5 3 15 8 NW 1015,5 20 0 0,3
10.07.2020 22:00:00 21,9 13,1 17,7 23,9 25,4 17,4 8 5 25 13 WNW 1015,4 29 0 0,0
10.07.2020 21:00:00 23,3 12,8 22,4 25,0 25,8 17,4 17 9 32 18 NNW 1013,3 75 0 0,0
10.07.2020 20:00:00 24,4 13,8 23,4 26,3 26,1 17,4 16 8 36 19 NW 1011,6 56 0 0,0
10.07.2020 19:00:00 26,6 13,3 25,4 28,8 26,2 17,4 17 9 34 18 NNW 1010,3 59 28 0,0
10.07.2020 18:00:00 26,9 19,5 29,0 31,5 26,1 17,4 7 4 26 14 SW 1009,3 52 40 0,8
10.07.2020 17:00:00 30,2 14,7 30,4 33,8 25,8 17,4 10 5 19 10 WNW 1008,2 53 26 0,0
10.07.2020 16:00:00 31,0 14,3 35,1 35,3 25,2 17,4 12 6 24 13 W 1008,8 66 35 0,0
10.07.2020 15:00:00 30,9 13,8 35,0 36,5 24,4 17,3 13 7 29 16 WNW 1009,1 46 54 0,0
10.07.2020 14:00:00 30,6 13,5 35,5 35,7 23,6 17,3 16 9 28 15 W 1009,4 66 59 0,0
10.07.2020 13:00:00 29,7 13,5 33,8 34,2 22,8 17,3 18 10 32 18 WSW 1009,8 46 59 0,0
10.07.2020 12:00:00 27,9 18,8 32,3 32,1 22,1 17,3 11 6 19 10 ESE 1010,3 47 60 0,0
10.07.2020 11:00:00 25,5 17,8 29,1 29,1 21,6 17,3 13 7 18 10 ESE 1011,1 71 60 0,0
10.07.2020 10:00:00 23,6 16,3 26,7 26,0 21,3 17,3 13 7 17 9 ESE 1011,8 32 60 0,0
10.07.2020 09:00:00 21,7 15,5 24,6 22,8 21,2 17,3 12 6 18 10 ESE 1012,3 53 60 0,0
10.07.2020 08:00:00 19,7 15,0 21,3 20,4 21,3 17,3 12 7 17 9 ESE 1012,8 55 60 0,0
10.07.2020 07:00:00 17,6 15,1 18,5 18,5 21,6 17,3 6 4 11 6 SSE 1013,4 39 38 0,0
10.07.2020 06:00:00 14,6 13,0 13,3 17,8 22,0 17,3 8 5 10 6 SSW 1014,0 40 0 0,0
10.07.2020 05:00:00 13,4 12,2 11,9 18,2 22,4 17,3 7 4 14 8 S 1013,9 37 0 0,0
10.07.2020 04:00:00 14,7 13,3 12,5 18,9 22,8 17,3 6 3 11 6 SSE 1013,9 41 0 0,0
10.07.2020 03:00:00 16,6 14,4 12,8 19,5 23,2 17,3 0 0 6 4 N 1014,0 47 0 0,0
10.07.2020 02:00:00 16,7 14,2 13,6 20,3 23,7 17,3 4 2 7 4 ESE 1014,0 52 0 0,0
10.07.2020 01:00:00 17,4 14,5 13,9 21,1 24,1 17,3 4 2 10 5 E 1014,3 57 0 0,0
10.07.2020 00:00:00 16,3 14,3 14,6 22,1 24,6 17,3 4 2 14 7 ESE 1014,3 50 0 0,0
09.07.2020 23:00:00 17,9 14,3 16,1 23,4 25,0 17,3 8 5 11 6 SW 1013,8 62 0 0,0
09.07.2020 22:00:00 20,4 15,5 18,1 25,2 25,3 17,3 9 5 10 5 SSW 1013,4 55 0 0,0
09.07.2020 21:00:00 23,9 16,4 20,5 27,6 25,4 17,3 3 2 7 4 SE 1012,7 58 52 0,0
09.07.2020 20:00:00 27,7 12,7 27,4 30,6 25,4 17,3 6 3 17 9 W 1012,4 54 60 0,0
09.07.2020 19:00:00 27,7 13,1 29,1 32,7 25,1 17,3 9 5 16 9 W 1012,3 57 59 0,0
09.07.2020 18:00:00 27,5 11,9 29,5 34,1 24,7 17,3 9 5 21 11 WSW 1012,9 75 60 0,0
09.07.2020 17:00:00 26,8 13,0 28,9 34,7 24,1 17,3 14 8 29 16 WSW 1013,6 75 59 0,0
09.07.2020 16:00:00 27,0 13,4 31,8 35,3 23,4 17,3 13 7 24 13 WSW 1014,2 75 58 0,0
09.07.2020 15:00:00 26,6 14,1 32,6 34,0 22,7 17,3 14 7 26 14 W 1014,8 54 52 0,0
09.07.2020 14:00:00 26,3 14,0 32,0 32,3 22,0 17,3 17 9 31 17 WSW 1015,5 48 43 0,0
09.07.2020 13:00:00 24,6 13,9 28,4 30,4 21,3 17,3 8 5 17 9 WSW 1016,0 57 19 0,0
09.07.2020 12:00:00 23,9 14,7 31,5 29,3 20,7 17,3 3 2 11 6 WSW 1016,4 51 34 0,0
09.07.2020 11:00:00 21,8 14,3 27,9 26,9 20,3 17,3 4 2 9 5 ENE 1017,2 36 21 0,0
09.07.2020 10:00:00 19,8 13,9 23,1 24,1 20,0 17,3 6 3 16 9 SSE 1017,7 60 28 0,0
09.07.2020 09:00:00 18,3 13,4 21,9 21,1 19,9 17,3 11 6 16 9 SE 1017,8 41 30 0,0
09.07.2020 08:00:00 16,3 13,6 17,8 19,2 20,0 17,3 6 4 10 5 SE 1018,2 51 2 0,0
09.07.2020 07:00:00 15,2 13,4 15,7 18,0 20,2 17,3 4 2 6 3 SE 1018,3 51 0 0,0
09.07.2020 06:00:00 14,6 13,4 14,3 17,9 20,4 17,3 4 2 7 4 ENE 1018,3 37 0 0,0
09.07.2020 05:00:00 14,9 13,1 14,5 18,1 20,6 17,3 3 2 7 4 NE 1018,2 41 0 0,0
09.07.2020 04:00:00 15,2 13,0 14,8 18,4 20,8 17,3 3 2 8 4 SW 1018,3 51 0 0,0
09.07.2020 03:00:00 14,9 13,6 14,8 18,7 21,1 17,3 7 4 8 4 S 1018,3 43 0 0,0
09.07.2020 02:00:00 15,1 13,4 14,9 19,0 21,3 17,3 6 4 8 4 S 1018,7 49 0 0,0
09.07.2020 01:00:00 15,3 13,0 14,9 19,3 21,6 17,3 5 3 10 5 E 1018,8 52 0 0,0
09.07.2020 00:00:00 15,9 12,9 15,5 19,8 21,9 17,3 3 2 8 4 SSW 1018,9 55 0 0,0
08.07.2020 23:00:00 16,5 12,6 16,0 20,2 22,2 17,3 5 3 9 5 N 1018,4 61 0 0,0
08.07.2020 22:00:00 16,7 12,5 16,0 20,8 22,5 17,3 7 4 16 9 N 1018,1 51 0 0,0
08.07.2020 21:00:00 16,9 12,1 16,5 21,9 22,8 17,3 12 6 17 9 NE 1017,3 59 0 0,0
08.07.2020 20:00:00 18,0 11,9 17,9 23,2 23,0 17,3 12 6 16 9 NNE 1016,9 55 0 0,0
08.07.2020 19:00:00 18,8 12,2 19,0 24,4 23,1 17,3 10 6 22 12 NNE 1016,3 60 0 0,0
08.07.2020 18:00:00 20,7 12,1 20,9 25,7 23,1 17,3 11 6 24 13 N 1015,8 43 0 0,0
08.07.2020 17:00:00 22,5 11,7 22,8 28,4 22,9 17,3 11 6 26 14 WNW 1015,3 52 1 0,0
08.07.2020 16:00:00 23,7 11,1 28,3 30,7 22,4 17,3 15 8 29 16 WSW 1014,8 59 5 0,0
08.07.2020 15:00:00 23,4 10,0 27,3 32,1 21,6 17,3 14 7 29 16 WSW 1014,8 39 29 0,0
08.07.2020 14:00:00 23,1 9,0 29,2 31,9 20,9 17,3 17 9 33 18 W 1015,3 60 59 0,0
08.07.2020 13:00:00 22,7 9,3 28,7 29,8 20,2 17,3 16 8 31 17 W 1015,8 57 58 0,0
08.07.2020 12:00:00 21,6 8,3 27,2 27,7 19,4 17,3 12 7 23 13 W 1016,0 49 46 0,0
08.07.2020 11:00:00 19,8 11,0 25,5 26,0 18,9 17,3 8 5 18 10 NNE 1016,5 60 60 0,0
08.07.2020 10:00:00 18,4 12,3 23,6 22,2 18,6 17,3 7 4 12 6 ESE 1016,9 43 39 0,0
08.07.2020 09:00:00 15,4 11,2 17,9 19,5 18,5 17,3 8 5 13 7 E 1017,5 49 24 0,0
08.07.2020 08:00:00 13,2 10,1 16,6 16,7 18,6 17,3 5 3 8 4 NE 1017,8 41 14 0,0
08.07.2020 07:00:00 10,8 8,9 11,6 14,9 18,9 17,3 5 3 8 4 S 1018,1 50 0 0,0
08.07.2020 06:00:00 8,9 7,5 8,7 14,1 19,2 17,3 4 2 7 4 SSW 1018,6 44 0 0,0
08.07.2020 05:00:00 8,9 7,4 7,7 14,3 19,6 17,3 6 3 7 4 SSW 1018,5 49 0 0,0
08.07.2020 04:00:00 9,2 7,8 8,4 14,7 20,0 17,3 4 2 7 4 SSW 1018,8 50 0 0,0
08.07.2020 03:00:00 8,8 7,5 7,7 15,1 20,4 17,3 3 2 10 5 SSW 1019,0 46 0 0,0
08.07.2020 02:00:00 9,6 8,1 8,2 15,6 20,9 17,3 8 4 9 5 SSW 1019,2 45 0 0,0
08.07.2020 01:00:00 9,9 8,4 7,9 16,4 21,4 17,3 0 0 8 4 N 1019,3 57 0 0,0
08.07.2020 00:00:00 11,7 8,4 8,7 17,5 21,8 17,3 6 4 10 5 SW 1019,0 57 0 0,0
07.07.2020 23:00:00 12,5 9,0 9,7 18,7 22,3 17,3 5 3 9 5 SW 1018,9 55 0 0,0
07.07.2020 22:00:00 14,4 9,1 10,4 20,4 22,7 17,3 4 2 6 3 SW 1018,6 65 0 0,0
07.07.2020 21:00:00 17,8 9,1 14,0 22,8 22,8 17,3 5 3 7 4 SSW 1017,8 70 35 0,0
07.07.2020 20:00:00 20,3 6,4 20,6 25,9 22,9 17,3 5 3 16 8 W 1017,3 75 59 0,0
07.07.2020 19:00:00 20,3 6,5 22,4 26,9 22,7 17,3 4 2 14 7 WSW 1017,8 44 20 0,0
07.07.2020 18:00:00 19,8 6,1 22,5 30,2 22,3 17,3 10 5 21 12 SW 1018,0 75 58 0,0
07.07.2020 17:00:00 20,0 6,9 24,0 29,9 21,8 17,3 10 5 20 11 NNW 1018,5 75 38 0,0
07.07.2020 16:00:00 19,8 5,3 25,0 30,9 21,2 17,3 13 7 22 12 W 1019,2 53 53 0,0
07.07.2020 15:00:00 18,7 6,0 22,0 28,6 20,7 17,3 8 4 19 10 NW 1019,8 75 19 0,0
07.07.2020 14:00:00 18,8 5,7 25,3 28,1 20,0 17,3 9 5 19 10 NW 1019,9 73 33 0,0
07.07.2020 13:00:00 17,8 6,5 21,1 27,8 19,3 17,3 11 6 19 10 N 1020,4 61 35 0,0
07.07.2020 12:00:00 17,3 7,7 24,6 27,0 18,6 17,3 10 5 21 12 WSW 1020,9 59 56 0,0
07.07.2020 11:00:00 16,7 7,9 24,2 23,6 18,1 17,3 8 4 19 10 WSW 1021,4 64 56 0,0
07.07.2020 10:00:00 15,0 7,3 19,3 20,6 17,8 17,3 10 5 18 10 NNW 1021,6 75 60 0,0
07.07.2020 09:00:00 14,0 7,4 19,2 17,5 17,8 17,3 10 5 16 9 W 1022,0 62 60 0,0
07.07.2020 08:00:00 13,2 7,1 16,4 15,0 17,9 17,3 12 6 16 9 W 1022,2 65 60 0,0
07.07.2020 07:00:00 11,1 7,1 12,3 13,1 18,2 17,3 7 4 10 6 W 1022,7 51 40 0,0
07.07.2020 06:00:00 8,0 6,0 6,8 12,3 18,6 17,3 6 4 9 5 SW 1022,8 49 0 0,0

tt = temperature
td = dewpoint
tt 5cm = temperature 5cm
tt -5cm = temperature -5cm
tt -20cm = temperature -20cm
tt -100cm = temperature -100cm
ff = wind speed
fx = gusts
dd = wind direction
ppp = reduced air pressure
vv = visibility
sd = sunshine duration
rr = precipitation

Next stations